Location: Akdamlar
(36.8729°N, 30.5187°E)
Time: 20:59:47
(UTC+00:00)

USA 234 - Pass Details

Date: 18 September 2020
Orbit: 1102 x 1106 km, 123.0° (Epoch: 16 October)

Event Time Altitude Azimuth Distance (km) Brightness Sun altitude
Rises 18:32:17 0° 40° (NE) 3,924 6.1 -30.0°
Reaches altitude 10° 18:34:51 10° 35° (NE) 2,965 5.4 -30.4°
Maximum altitude 18:41:04 48° 323° (NW) 1,403 4.0 -31.5°
Drops below altitude 10° 18:47:17 10° 251° (WSW) 2,958 5.9 -32.6°
Sets 18:49:50 0° 246° (WSW) 3,914 6.6 -33.0°
